THORAD AGENA D DEB, 18513

Orbit data source: Space-Track

THORAD AGENA D DEB, 18513 is space debris in SSO originally from a launch on Wed, 08 Apr 1970 UTC launched from the Air Force Western Test Range (AFWTR). Debris objects in space refer to the collection of defunct objects orbiting the Earth. Examples of debris include non-operational satellites, rocket bodies, and fragments generated from explosions, collisions, or faulty payload assembly.

Loading next visibility...
Identifier
18513, 1970-025PN
Orbit
SSO
Country
Flag of USUS
Related business
Manufacturer
Unknown
Mission
Spacecraft
Bus & Motor
Unknown
Mass
Unknown
Launch date (UTC)
1970-04-08 (56 years ago)
Launch vehicle
Unknown
Launch site
Air Force Western Test Range (AFWTR)
Object type
Payload
Rocket body
Debris
Shape & HBR
Unknown shape, 0.1 m
Radar Cross Section
Medium (>0.1 m² and <1 m²)

Expand to show TLE details & history
Last TLE update: 9 hours ago

TLE from 9 hours ago
0 THORAD AGENA D DEB
1 18513U 70025PN  26208.22040426  .00002806  00000-0  11210-2 0  9993
2 18513  99.7235 120.6926 0048518 322.5918 192.1700 14.28756933130458
Epoch: 2026-07-27T05:17Z
TLE epoch observation values (Epoch: 2026-07-27T05:17:22.928Z)
Latitude
24.99506°
Longitude
-79.00227°
Altitude
832.927 km
Speed
7.421 km/s
True Right ascension
20h 21m 00s
True Declination
24° 51' 54"
Sunlit
Object was in full shadow at epoch
Visualization orbit readout
Latitude
Unknown
Longitude
Unknown
Altitude
Unknown
Speed
Unknown
Apparent Right ascension
Unknown
Apparent Declination
Unknown
Sunlit
N/A
Visualization observer readout
Local Sidereal Time
03:54:04
Azimuth
Unknown
Elevation
Unknown
Doppler factor
Unknown
Orbital elements
Apogee altitude
827.881 km
Perigee altitude
758.294 km
Semi-major axis
7,171.224 km
Eccentricity
0.00485
Inclination
99.7235°
RAAN
120.6926°
Arg. of periapsis
322.5918°
True anomaly
192.05348°
Mean anomaly
192.17°
Eccentric anomaly
192.11167°
Mean motion
3.57399 °/min
Orbital period
100.73 mins
BSTAR
0.001121
Loading maneuver chart data...
Computing Atmospheric mass density...

Documentation

Showing up to 5 results
|